Content
SEND FEEDBACK

Daily
Averages
Monthly
Summary
United States of America

PEARISBURG, VIRGINIA


Home > North America > United States > Virginia
Elevation: 1831 feet     Latitude: 37 16N     Longitude: 080 43W

WEATHER
 
SELECT A DAY
Number of Records: 448,174;   Date Range: 1/1/95 - 12/16/14
 
SHARE

PRINT THIS DATA

[ ← Previous Day ]
WEATHER ALMANAC - FEBRUARY 13, 2013
[ Next Day → ]
[ °C ]   °F
Weather ElementAverageHighLow
Temperature39.3 °F42.8 °F (1:35 am)35.6 °F (8:15 pm)
Dewpoint36.3 °F42.8 °F (2:55 pm)28.4 °F (12:35 am)
Humidity89.7 %100 % (8:15 am)65 % (12:35 am)
Barometer29.76 in29.91 in (12:35 am)29.61 in (3:35 pm)
Wind Speed4.6 mph17.3 mph (5:35 pm)
Wind Gust27.6 mph (5:35 pm)
Weather ElementAverage
Visibility8.1 mi
Wind DirectionESE (126.5 °)

Weather ElementTotal
Precipitation0.06 in
Heating Degree Days25.8 (Base 65)
Averaged from 71 records on February 13, 2013
WEATHER CONDITIONS BREAKOUT
WIND DIRECTION BREAKOUT
WEATHER BY HOUR - FEBRUARY 13, 2013
[ °C ]   °F
Local TimeTemperatureDewpointHumidityBarometerVisibilityWind DirectionWind SpeedGust SpeedPrecipitationEventsConditions
12:35 AM39.2 °F28.4 °F65 %29.91 in10.0 miCalmOvercast
12:55 AM39.2 °F28.4 °F65 %29.91 in10.0 miCalmOvercast
1:15 AM41.0 °F32.0 °F70 %29.90 in10.0 miSSW (200°)4.6 mphOvercast
1:35 AM42.8 °F35.6 °F76 %29.88 in10.0 miSSW (210°)4.6 mphOvercast
1:55 AM42.8 °F37.4 °F81 %29.89 in10.0 miSSW (200°)3.5 mphOvercast
2:15 AM42.8 °F35.6 °F76 %29.88 in10.0 miCalmOvercast
2:35 AM41.0 °F35.6 °F81 %29.88 in10.0 miCalmOvercast
2:55 AM41.0 °F35.6 °F81 %29.88 in10.0 miSSW (210°)6.9 mphOvercast
3:15 AM41.0 °F35.6 °F81 %29.85 in10.0 miCalmOvercast
3:35 AM39.2 °F35.6 °F87 %29.84 in10.0 miCalmOvercast
3:55 AM39.2 °F35.6 °F87 %29.82 in10.0 miCalmOvercast
4:15 AM39.2 °F35.6 °F87 %29.82 in10.0 miCalmOvercast
4:35 AM39.2 °F35.6 °F87 %29.81 in10.0 miCalmOvercast
4:55 AM39.2 °F35.6 °F87 %29.80 in10.0 miCalmOvercast
5:15 AM39.2 °F35.6 °F87 %29.80 in10.0 miCalmOvercast
5:35 AM39.2 °F35.6 °F87 %29.79 in10.0 miCalmOvercast
5:55 AM39.2 °F35.6 °F87 %29.80 in10.0 miCalmOvercast
6:15 AM39.2 °F35.6 °F87 %29.79 in10.0 miCalmOvercast
6:35 AM39.2 °F35.6 °F87 %29.79 in10.0 miCalmOvercast
6:55 AM39.2 °F37.4 °F93 %29.78 in7.0 miCalmRainLight Rain
7:15 AM39.2 °F37.4 °F93 %29.79 in10.0 miCalmDrizzle
7:35 AM39.2 °F37.4 °F93 %29.77 in2.5 miCalm0.01 inRainLight Rain
7:55 AM39.2 °F37.4 °F93 %29.77 in10.0 miCalmLight Drizzle
8:15 AM39.2 °F39.2 °F100 %29.78 in10.0 miCalmOvercast
8:35 AM39.2 °F39.2 °F100 %29.78 in10.0 miSSE (160°)3.5 mphDrizzle
8:55 AM39.2 °F39.2 °F100 %29.77 in4.0 miSE (130°)3.5 mph0.01 inRainLight Rain
9:15 AM39.2 °F39.2 °F100 %29.76 in3.0 miSSE (160°)3.5 mphRainLight Rain
9:35 AM39.2 °F39.2 °F100 %29.77 in1.5 miCalm0.01 inRainRain
9:55 AM39.2 °F39.2 °F100 %29.75 in3.0 miCalm0.01 inRainLight Rain
10:15 AM39.2 °F39.2 °F100 %29.75 in2.5 miCalm0.01 inRainLight Rain
10:35 AM39.2 °F39.2 °F100 %29.74 in5.0 miCalmOvercast
10:55 AM39.2 °F39.2 °F100 %29.74 in3.0 miESE (120°)4.6 mphRainLight Rain
11:15 AM39.2 °F39.2 °F100 %29.72 in3.0 miESE (110°)4.6 mphOvercast
11:35 AM39.2 °F39.2 °F100 %29.71 in2.5 miCalmOvercast
11:55 AM39.2 °F39.2 °F100 %29.71 in2.5 miSSE (150°)3.5 mphOvercast
12:15 PM39.2 °F39.2 °F100 %29.69 in2.0 miCalmOvercast
12:35 PM39.2 °F39.2 °F100 %29.68 in3.0 miCalmOvercast
12:55 PM41.0 °F41.0 °F100 %29.67 in4.0 miCalmOvercast
1:15 PM41.0 °F41.0 °F100 %29.65 in7.0 miCalmRainLight Rain
1:35 PM41.0 °F41.0 °F100 %29.63 in10.0 miCalmOvercast
1:55 PM41.0 °F41.0 °F100 %29.62 in10.0 miCalmRainLight Rain
2:15 PM41.0 °F41.0 °F100 %29.62 in10.0 miCalmLight Drizzle
2:35 PM41.0 °F41.0 °F100 %29.62 in4.0 miCalmRainRain
2:55 PM42.8 °F42.8 °F100 %29.62 in5.0 miSouth (190°)3.5 mphRainLight Rain
3:15 PM42.8 °F42.8 °F100 %29.62 in10.0 miCalmRainLight Rain
3:35 PM42.8 °F42.8 °F100 %29.61 in5.0 miSouth (170°)4.6 mphDrizzle
3:55 PM42.8 °F42.8 °F100 %29.61 in7.0 miSouth (190°)4.6 mphRainLight Rain
4:15 PM42.8 °F42.8 °F100 %29.61 in5.0 miSW (220°)3.5 mphRainRain
4:35 PM42.8 °F42.8 °F100 %29.61 in7.0 miWest (260°)3.5 mphDrizzle
4:55 PM42.8 °F42.8 °F100 %29.62 in7.0 miWSW (250°)4.6 mphRainLight Rain
5:15 PM42.8 °F42.8 °F100 %29.64 in7.0 miWNW (290°)15.0 mphRainLight Rain
5:35 PM39.2 °F39.2 °F100 %29.67 in10.0 miWest (280°)17.3 mph27.6 mphOvercast
5:55 PM39.2 °F35.6 °F87 %29.69 in10.0 miNW (310°)15.0 mphOvercast
6:15 PM37.4 °F33.8 °F87 %29.70 in10.0 miNW (310°)12.7 mph23.0 mphOvercast
6:35 PM37.4 °F33.8 °F87 %29.73 in10.0 miWest (280°)10.4 mphOvercast
6:55 PM37.4 °F33.8 °F87 %29.74 in10.0 miWNW (290°)11.5 mphOvercast
7:15 PM37.4 °F32.0 °F81 %29.76 in10.0 miWest (280°)11.5 mphOvercast
7:35 PM37.4 °F30.2 °F75 %29.77 in10.0 miWNW (290°)10.4 mph18.4 mphOvercast
7:55 PM37.4 °F30.2 °F75 %29.79 in10.0 miWest (280°)13.8 mph23.0 mphOvercast
8:15 PM35.6 °F30.2 °F81 %29.79 in10.0 miWNW (300°)17.3 mph21.9 mph0.01 inOvercast
8:35 PM35.6 °F30.2 °F81 %29.80 in10.0 miWNW (290°)12.7 mph17.3 mphOvercast
8:55 PM35.6 °F30.2 °F81 %29.80 in10.0 miWNW (290°)11.5 mph18.4 mphOvercast
9:15 PM35.6 °F30.2 °F81 %29.80 in10.0 miWest (280°)12.7 mphOvercast
9:35 PM35.6 °F30.2 °F81 %29.80 in10.0 miWest (280°)11.5 mph21.9 mphOvercast
9:55 PM35.6 °F30.2 °F81 %29.81 in10.0 miWNW (300°)11.5 mphOvercast
10:15 PM35.6 °F30.2 °F81 %29.81 in10.0 miWNW (290°)9.2 mphOvercast
10:35 PM35.6 °F30.2 °F81 %29.82 in10.0 miWest (270°)9.2 mph16.1 mphOvercast
10:55 PM35.6 °F30.2 °F81 %29.83 in10.0 miWest (280°)11.5 mphOvercast
11:15 PM35.6 °F30.2 °F81 %29.83 in10.0 miWNW (290°)10.4 mph17.3 mphOvercast
11:35 PM35.6 °F30.2 °F81 %29.84 in10.0 miWNW (290°)10.4 mph23.0 mphOvercast
11:55 PM35.6 °F30.2 °F81 %29.84 in10.0 miWest (280°)15.0 mph21.9 mphOvercast
Hourly data recorded from KPSK, located miles away from Pearisburg, Virginia







STORIES FROM OUR PARTNERS